CW5439 Weather Reports


Display with metric or nautical units.
time (UTC)temp
F
wind
direction
speed
MPH
gust
MPH
rain 1hr
in
rain 24hr
in
rain mn
in
humidity
%
barometer
mb
20260505063206 45 331 6.0 14.0 0.00 0.00 0.00 87 1013.4
20260505062705 45 331 5.0 10.0 0.00 0.00 0.00 88 1013.4
20260505062206 45 347 4.0 8.0 0.00 0.00 0.00 88 1013.5
20260505061704 45 63 2.0 6.0 0.00 0.00 0.00 89 1013.4
20260505061206 45 82 1.0 4.0 0.00 0.00 0.00 89 1013.4
20260505060705 44 199 2.0 4.0 0.00 0.00 0.00 89 1013.3
20260505060205 44 194 2.0 3.0 0.00 0.00 0.00 89 1013.2
20260505055705 44 210 1.0 3.0 0.00 0.00 0.00 90 1013.2
20260505055206 44 205 1.0 4.0 0.00 0.00 0.00 90 1013.1
20260505054705 44 238 2.0 4.0 0.00 0.00 0.00 90 1013.2
20260505054205 44 240 2.0 4.0 0.00 0.00 0.00 90 1013.0
20260505053205 44 262 2.0 4.0 0.00 0.00 0.00 91 1013.1
20260505052705 44 308 2.0 4.0 0.00 0.00 0.00 91 1013.1
20260505052205 44 323 1.0 5.0 0.00 0.00 0.00 91 1013.1
20260505051706 44 279 1.0 5.0 0.00 0.00 0.00 91 1013.1
20260505051206 44 286 2.0 6.0 0.00 0.00 0.00 91 1013.0
20260505050704 44 286 2.0 6.0 0.00 0.00 0.00 91 1013.0
20260505050205 43 282 3.0 7.0 0.00 0.00 0.00 91 1013.0
20260505041705 43 240 2.0 4.0 0.00 0.00 0.00 92 1012.9
20260505041205 43 253 2.0 4.0 0.00 0.00 0.00 92 1012.9
20260505040705 43 261 2.0 4.0 0.00 0.00 0.00 92 1012.9
20260505040206 43 245 2.0 6.0 0.00 0.00 0.00 92 1012.9
20260505035705 43 248 2.0 6.0 0.00 0.00 0.00 92 1012.9
20260505034705 43 266 2.0 6.0 0.00 0.00 0.00 92 1012.9
20260505033705 42 233 3.0 6.0 0.00 0.00 0.00 92 1012.8
20260505033205 42 235 2.0 5.0 0.00 0.00 0.00 92 1012.8
20260505032705 42 244 2.0 4.0 0.00 0.00 0.00 92 1012.8
20260505032205 42 229 2.0 4.0 0.00 0.00 0.00 92 1012.8
20260505031705 42 232 2.0 4.0 0.00 0.00 0.00 92 1012.8
20260505031205 42 229 1.0 3.0 0.00 0.00 0.00 92 1012.9
20260505030705 42 227 1.0 3.0 0.00 0.00 0.00 92 1012.8
20260505030205 42 232 1.0 3.0 0.00 0.00 0.00 92 1012.8
20260505025705 42 248 2.0 3.0 0.00 0.00 0.00 92 1012.8
20260505025205 42 274 2.0 4.0 0.00 0.00 0.00 92 1012.9
20260505024705 42 248 2.0 4.0 0.00 0.00 0.00 92 1012.8
20260505023705 42 267 2.0 4.0 0.00 0.00 0.00 92 1012.9
20260505023205 42 242 3.0 4.0 0.00 0.00 0.00 92 1012.8
20260505022706 42 246 3.0 3.0 0.00 0.00 0.00 91 1012.8
20260505022208 41 241 2.0 3.0 0.00 0.00 0.00 91 1012.8
20260505021705 41 261 1.0 3.0 0.00 0.00 0.00 91 1012.8
20260505021205 41 245 1.0 3.0 0.00 0.00 0.00 91 1012.8
20260505020705 41 244 1.0 4.0 0.00 0.00 0.00 91 1012.9
20260505015206 41 259 2.0 7.0 0.00 0.00 0.00 91 1012.9
20260505014705 41 271 3.0 7.0 0.00 0.00 0.00 90 1012.9
20260505013705 42 250 3.0 6.0 0.00 0.01 0.00 90 1013.0
20260505013209 42 249 3.0 7.0 0.00 0.01 0.00 90 1012.9
20260505012705 42 259 3.0 7.0 0.00 0.01 0.00 90 1012.9
20260505012205 42 250 4.0 7.0 0.00 0.01 0.00 90 1013.0
20260505011704 42 248 4.0 7.0 0.00 0.01 0.00 90 1012.9
20260505011208 42 0 3.0 7.0 0.00 0.01 0.00 90 1012.9
20260505010205 42 245 3.0 7.0 0.00 0.01 0.00 90 1012.9
20260505005705 42 234 3.0 7.0 0.00 0.01 0.00 89 1012.9
20260505005205 42 215 3.0 7.0 0.00 0.01 0.00 89 1012.9
20260505004705 42 0 3.0 9.0 0.00 0.01 0.00 89 1012.9
20260505004206 42 232 4.0 9.0 0.00 0.01 0.00 89 1012.8
20260505003707 42 243 5.0 9.0 0.00 0.01 0.00 89 1012.8
20260505003205 42 225 4.0 8.0 0.00 0.01 0.00 89 1012.9
20260505002705 42 250 3.0 7.0 0.00 0.01 0.00 89 1012.9
20260505002206 42 250 4.0 7.0 0.00 0.01 0.00 89 1012.9
20260505001705 42 229 3.0 6.0 0.00 0.01 0.00 89 1012.9
20260505001206 42 232 2.0 6.0 0.00 0.01 0.00 89 1013.0
20260505000708 43 246 3.0 7.0 0.00 0.01 0.00 89 1013.0
20260504235206 43 213 3.0 8.0 0.00 0.01 0.00 88 1013.0
20260504234705 43 240 3.0 8.0 0.00 0.01 0.00 88 1013.0
20260504234205 43 232 3.0 8.0 0.00 0.02 0.00 88 1013.1
20260504233706 43 226 3.0 8.0 0.00 0.02 0.00 88 1013.0
20260504233206 43 252 3.0 8.0 0.00 0.02 0.00 88 1013.1
20260504232705 43 263 3.0 8.0 0.00 0.02 0.00 88 1013.2
20260504232205 44 270 4.0 8.0 0.00 0.02 0.00 87 1013.1
20260504231705 44 255 4.0 8.0 0.00 0.02 0.00 87 1013.1
20260504231205 44 255 4.0 8.0 0.00 0.02 0.00 87 1013.1
20260504230705 44 224 4.0 9.0 0.00 0.02 0.00 87 1013.1
20260504225705 44 223 5.0 11.0 0.00 0.02 0.02 87 1013.1
20260504225205 44 217 5.0 11.0 0.00 0.02 0.02 87 1013.1
20260504224706 44 183 5.0 11.0 0.00 0.02 0.02 87 1013.1
20260504223705 44 242 4.0 12.0 0.00 0.02 0.02 86 1013.2
20260504223205 44 227 4.0 12.0 0.00 0.02 0.02 86 1013.2
20260504222706 44 217 5.0 12.0 0.00 0.02 0.02 86 1013.1
20260504222209 44 228 4.0 7.0 0.00 0.02 0.02 86 1013.2
20260504221729 45 253 3.0 7.0 0.00 0.02 0.02 85 1013.2
20260504221205 45 234 2.0 5.0 0.00 0.02 0.02 85 1013.2
20260504220705 45 253 2.0 5.0 0.00 0.02 0.02 85 1013.2
20260504220206 45 232 2.0 7.0 0.00 0.02 0.02 85 1013.2
20260504215205 45 245 3.0 7.0 0.00 0.02 0.02 85 1013.2
20260504214705 45 247 3.0 7.0 0.00 0.02 0.02 84 1013.2
20260504214205 46 217 3.0 7.0 0.00 0.02 0.02 84 1013.3
20260504213705 46 223 3.0 5.0 0.00 0.02 0.02 84 1013.3
20260504213205 46 220 3.0 5.0 0.00 0.02 0.02 84 1013.3
20260504212705 46 240 3.0 8.0 0.00 0.02 0.02 83 1013.3
20260504211705 46 262 3.0 8.0 0.00 0.02 0.02 83 1013.3
20260504211221 46 264 3.0 11.0 0.00 0.02 0.02 83 1013.2
20260504210705 47 239 4.0 11.0 0.00 0.02 0.02 83 1013.2
20260504210208 47 244 4.0 11.0 0.00 0.02 0.02 83 1013.2
20260504205705 47 238 4.0 7.0 0.00 0.02 0.02 83 1013.2
20260504205205 47 237 4.0 7.0 0.00 0.02 0.02 82 1013.3
20260504204711 47 258 4.0 9.0 0.00 0.02 0.02 82 1013.4
20260504204206 47 223 4.0 9.0 0.00 0.02 0.02 82 1013.4
20260504203205 48 245 3.0 8.0 0.00 0.02 0.02 81 1013.4
20260504202205 48 248 4.0 9.0 0.00 0.02 0.02 81 1013.3
20260504201706 48 244 4.0 10.0 0.00 0.02 0.02 80 1013.3
20260504201205 48 216 4.0 10.0 0.00 0.02 0.02 80 1013.2
20260504200705 49 246 4.0 10.0 0.00 0.02 0.02 79 1013.2
20260504200226 49 238 4.0 10.0 0.00 0.02 0.02 79 1013.1
20260504195705 49 254 4.0 9.0 0.00 0.02 0.02 78 1013.1
20260504195208 49 240 4.0 9.0 0.00 0.02 0.02 78 1013.1
20260504194705 50 249 5.0 10.0 0.00 0.02 0.02 77 1013.1
20260504194205 50 225 4.0 11.0 0.00 0.02 0.02 77 1013.1
20260504193205 51 242 4.0 11.0 0.00 0.02 0.02 76 1012.9
20260504192206 51 248 5.0 11.0 0.00 0.02 0.02 75 1012.9
20260504191705 51 250 6.0 13.0 0.00 0.02 0.02 75 1012.9
20260504191205 52 259 6.0 14.0 0.00 0.02 0.02 74 1012.8
20260504190705 52 250 7.0 14.0 0.00 0.02 0.02 73 1012.8
20260504190205 53 0 8.0 14.0 0.00 0.02 0.02 72 1012.8
20260504185705 53 297 8.0 14.0 0.00 0.02 0.02 72 1012.8
20260504185205 53 272 8.0 13.0 0.00 0.02 0.02 71 1012.8
20260504184705 54 251 8.0 14.0 0.00 0.02 0.02 71 1012.8
20260504184205 54 234 8.0 14.0 0.00 0.02 0.02 72 1012.7
20260504183705 54 263 8.0 14.0 0.00 0.02 0.02 71 1012.6
20260504183205 54 198 8.0 14.0 0.00 0.02 0.02 71 1012.6
20260504182206 54 255 7.0 16.0 0.00 0.02 0.02 70 1012.5
20260504181706 54 261 7.0 16.0 0.00 0.02 0.02 70 1012.5
20260504181205 54 263 8.0 15.0 0.00 0.02 0.02 69 1012.5
20260504175706 55 261 8.0 15.0 0.00 0.02 0.02 69 1012.5
20260504175205 55 248 8.0 15.0 0.00 0.02 0.02 67 1012.4
20260504174705 55 252 9.0 16.0 0.00 0.02 0.02 66 1012.4
20260504174206 56 225 9.0 16.0 0.00 0.02 0.02 64 1012.4
20260504173705 56 225 8.0 16.0 0.00 0.02 0.02 63 1012.5
20260504173205 57 281 8.0 15.0 0.00 0.02 0.02 62 1012.4
20260504172205 58 280 8.0 17.0 0.00 0.02 0.02 61 1012.4
20260504171705 58 260 9.0 17.0 0.00 0.02 0.02 60 1012.5
20260504171205 58 236 9.0 17.0 0.00 0.02 0.02 58 1012.5
20260504170728 58 267 8.0 15.0 0.00 0.02 0.02 59 1012.4
20260504160205 57 239 7.0 13.0 0.00 0.02 0.02 59 1012.5
20260504150705 57 277 7.0 13.0 0.00 0.02 0.02 59 1012.6
20260504150205 57 263 7.0 11.0 0.00 0.02 0.02 60 1012.6
20260504141205 59 223 6.0 12.0 0.00 0.02 0.02 59 1012.7
20260504140705 59 250 7.0 13.0 0.00 0.02 0.02 58 1012.7
20260504140205 59 265 7.0 14.0 0.00 0.02 0.02 58 1012.7
20260504130705 59 237 7.0 14.0 0.00 0.02 0.02 59 1012.8
20260504130205 59 227 7.0 15.0 0.00 0.02 0.02 61 1012.8
20260504120205 56 242 9.0 18.0 0.00 0.02 0.02 61 1012.9
20260504110227 57 282 9.0 14.0 0.00 0.02 0.02 62 1012.9
20260504100205 56 293 8.0 14.0 0.00 0.02 0.02 71 1012.8
20260504081705 53 251 5.0 12.0 0.00 0.02 0.02 83 1013.1
20260504081205 52 265 5.0 10.0 0.00 0.02 0.02 82 1013.0
20260504080704 53 281 5.0 12.0 0.00 0.02 0.02 86 1013.0
20260504070205 48 254 4.0 8.0 0.00 0.02 0.02 93 1012.9